Torna al catalogo

STARLINK-31977

AttivoComunicazioniVLEO
NORAD 59892·PAYLOAD·🇺🇸 United States

Lanciato May 28, 2024 da Cape Canaveral Space Force Station

Loading…

Prossimi Passaggi (prossime 24 ore)

TLE

AggiornatoSource: CelesTrak SupGP

Epoca: Sep 14, 2026, 22:04 UTC

1 59892C 24100H   26257.91993056 -.00034489  00000+0 -12494-2 0  2572
2 59892  42.9991 129.4933 0001280 270.5954 346.3260 15.27590807    12

Traccia STARLINK-31977 in tempo reale con AllMySat

Download on the App Store